BAW740 EGLL-LSZH

Flight info

Callsign BAW740
Flight time 1h 15m
Altitude 25000
Route DET L6 DVR UL9 KONAN DCT KOK DCT SISGA DCT RITAX DCT KRH M150 LAMGO T721 RILAX
Aircraft A320/M-SDE3FGHIRWY/LB1

Departure

Time 2026-04-26 19:04
Airport London Heathrow Airport (EGLL)

Arrival

Time 2026-04-26 20:20
Airport Zürich Airport (LSZH)
Time Latitude Longitude Altitude Speed Heading
2026-04-26 18:35 51.47220 -0.47703 80 ft 0 kts 90°
2026-04-26 18:51 51.47220 -0.47704 80 ft 0 kts 90°
2026-04-26 18:51 51.47220 -0.47710 80 ft 2 kts 90°
2026-04-26 18:51 51.47220 -0.47731 80 ft 2 kts 90°
2026-04-26 18:52 51.47220 -0.47754 79 ft 2 kts 90°
2026-04-26 18:52 51.47220 -0.47776 79 ft 2 kts 90°
2026-04-26 18:52 51.47220 -0.47796 79 ft 2 kts 90°
2026-04-26 18:52 51.47220 -0.47817 78 ft 2 kts 90°
2026-04-26 18:53 51.47220 -0.47841 78 ft 2 kts 99°
2026-04-26 18:53 51.47227 -0.47863 78 ft 1 kts 140°
2026-04-26 18:53 51.47233 -0.47869 78 ft 1 kts 153°
2026-04-26 18:53 51.47236 -0.47872 78 ft 0 kts 149°
2026-04-26 18:58 51.47226 -0.47869 78 ft 7 kts 179°
2026-04-26 18:58 51.47142 -0.47871 78 ft 11 kts 181°
2026-04-26 18:58 51.47060 -0.47871 80 ft 13 kts 179°
2026-04-26 18:58 51.46977 -0.47869 81 ft 13 kts 180°
2026-04-26 18:59 51.46876 -0.47867 81 ft 14 kts 179°
2026-04-26 18:59 51.46775 -0.47868 81 ft 15 kts 180°
2026-04-26 18:59 51.46675 -0.47878 81 ft 11 kts 205°
2026-04-26 18:59 51.46653 -0.47986 81 ft 12 kts 270°
2026-04-26 19:00 51.46652 -0.48076 81 ft 0 kts 270°
2026-04-26 19:00 51.46652 -0.48083 81 ft 0 kts 270°
2026-04-26 19:01 51.46652 -0.48084 81 ft 0 kts 270°
2026-04-26 19:01 51.46652 -0.48127 81 ft 8 kts 270°
2026-04-26 19:02 51.46652 -0.48258 79 ft 15 kts 270°
2026-04-26 19:02 51.46651 -0.48458 78 ft 19 kts 270°
2026-04-26 19:02 51.46649 -0.48671 78 ft 18 kts 265°
2026-04-26 19:02 51.46608 -0.48762 78 ft 16 kts 204°
2026-04-26 19:03 51.46479 -0.48722 78 ft 16 kts 112°
2026-04-26 19:03 51.46478 -0.48310 78 ft 69 kts 90°
2026-04-26 19:03 51.46482 -0.47210 78 ft 128 kts 89°
2026-04-26 19:03 51.46488 -0.45730 95 ft 170 kts 91°
2026-04-26 19:04 51.46453 -0.41925 1305 ft 175 kts 101°
2026-04-26 19:04 51.45903 -0.40242 1972 ft 176 kts 126°
2026-04-26 19:04 51.45189 -0.38609 2296 ft 188 kts 114°
2026-04-26 19:05 51.44148 -0.34479 2841 ft 222 kts 109°
2026-04-26 19:05 51.43603 -0.32069 3179 ft 240 kts 108°
2026-04-26 19:05 51.43024 -0.29442 3592 ft 257 kts 108°
2026-04-26 19:06 51.42515 -0.26726 4235 ft 263 kts 102°
2026-04-26 19:06 51.42133 -0.23847 4997 ft 265 kts 100°
2026-04-26 19:06 51.41772 -0.20964 5613 ft 268 kts 101°
2026-04-26 19:06 51.41396 -0.18053 5955 ft 270 kts 101°
2026-04-26 19:07 51.41013 -0.15183 6004 ft 271 kts 102°
2026-04-26 19:07 51.40613 -0.12253 6004 ft 271 kts 102°
2026-04-26 19:07 51.40210 -0.09334 6006 ft 271 kts 102°
2026-04-26 19:07 51.39812 -0.06452 6005 ft 271 kts 102°
2026-04-26 19:08 51.39408 -0.03540 6007 ft 271 kts 102°
2026-04-26 19:08 51.38998 -0.00588 6008 ft 270 kts 102°
2026-04-26 19:08 51.38591 0.02328 6003 ft 269 kts 102°
2026-04-26 19:08 51.38186 0.05229 6002 ft 269 kts 102°
2026-04-26 19:09 51.37775 0.08167 6002 ft 269 kts 102°
2026-04-26 19:09 51.37367 0.11085 6001 ft 269 kts 102°
2026-04-26 19:09 51.36961 0.13977 6007 ft 269 kts 102°
2026-04-26 19:09 51.36548 0.16914 6003 ft 269 kts 102°
2026-04-26 19:10 51.36140 0.19814 6006 ft 270 kts 102°
2026-04-26 19:10 51.35727 0.22743 6004 ft 270 kts 102°
2026-04-26 19:10 51.35315 0.25657 6006 ft 270 kts 102°
2026-04-26 19:10 51.34898 0.28600 6007 ft 271 kts 102°
2026-04-26 19:11 51.34478 0.31560 6007 ft 271 kts 102°
2026-04-26 19:11 51.34062 0.34488 6004 ft 271 kts 102°
2026-04-26 19:11 51.33642 0.37433 6009 ft 271 kts 102°
2026-04-26 19:11 51.33225 0.40347 6006 ft 271 kts 102°
2026-04-26 19:12 51.32801 0.43308 6009 ft 271 kts 102°
2026-04-26 19:12 51.32384 0.46222 6005 ft 271 kts 102°
2026-04-26 19:12 51.31980 0.49034 6008 ft 271 kts 102°
2026-04-26 19:12 51.31563 0.51928 6009 ft 271 kts 102°
2026-04-26 19:13 51.31142 0.54852 6004 ft 270 kts 102°
2026-04-26 19:13 51.30721 0.57769 6008 ft 270 kts 102°
2026-04-26 19:13 51.30251 0.60695 6022 ft 273 kts 105°
2026-04-26 19:13 51.29718 0.63637 6413 ft 280 kts 105°
2026-04-26 19:14 51.29201 0.66468 7253 ft 279 kts 106°
2026-04-26 19:14 51.28661 0.69415 8034 ft 282 kts 106°
2026-04-26 19:14 51.28113 0.72407 8726 ft 286 kts 106°
2026-04-26 19:14 51.27739 0.74445 9200 ft 289 kts 107°
2026-04-26 19:15 51.26981 0.78572 10104 ft 294 kts 107°
2026-04-26 19:15 51.26407 0.81692 10706 ft 300 kts 107°
2026-04-26 19:15 51.25800 0.84983 11031 ft 316 kts 107°
2026-04-26 19:15 51.25163 0.88430 11313 ft 331 kts 107°
2026-04-26 19:16 51.24505 0.91982 11598 ft 346 kts 107°
2026-04-26 19:16 51.23799 0.95788 11868 ft 361 kts 107°
2026-04-26 19:16 51.23083 0.99642 12173 ft 373 kts 107°
2026-04-26 19:16 51.22343 1.03628 12702 ft 378 kts 107°
2026-04-26 19:17 51.21590 1.07669 13284 ft 380 kts 107°
2026-04-26 19:17 51.20831 1.11736 13831 ft 384 kts 107°
2026-04-26 19:17 51.20073 1.15791 14368 ft 387 kts 107°
2026-04-26 19:17 51.19307 1.19874 14864 ft 390 kts 107°
2026-04-26 19:18 51.18526 1.24020 15352 ft 394 kts 107°
2026-04-26 19:18 51.17732 1.28232 15834 ft 397 kts 107°
2026-04-26 19:18 51.16972 1.32467 16296 ft 401 kts 104°
2026-04-26 19:18 51.16401 1.36794 16764 ft 404 kts 99°
2026-04-26 19:19 51.16049 1.41249 17225 ft 407 kts 95°
2026-04-26 19:19 51.15825 1.45715 17650 ft 410 kts 94°
2026-04-26 19:19 51.15617 1.50275 18079 ft 413 kts 94°
2026-04-26 19:19 51.15411 1.54804 18514 ft 416 kts 94°
2026-04-26 19:20 51.15195 1.59394 18941 ft 419 kts 94°
2026-04-26 19:20 51.15047 1.62494 19224 ft 420 kts 94°
2026-04-26 19:20 51.14745 1.68682 19748 ft 425 kts 95°
2026-04-26 19:20 51.14509 1.73415 20133 ft 428 kts 95°
2026-04-26 19:21 51.14275 1.78080 20516 ft 430 kts 95°
2026-04-26 19:21 51.14035 1.82814 20900 ft 433 kts 95°
2026-04-26 19:21 51.13790 1.87617 21266 ft 435 kts 95°
2026-04-26 19:21 51.13541 1.92447 21628 ft 438 kts 95°
2026-04-26 19:22 51.13292 1.97218 21988 ft 440 kts 95°
2026-04-26 19:22 51.13037 2.02088 22333 ft 443 kts 95°
2026-04-26 19:22 51.12777 2.06996 22669 ft 445 kts 95°
2026-04-26 19:22 51.12514 2.11913 23000 ft 448 kts 95°
2026-04-26 19:23 51.12249 2.16831 23319 ft 450 kts 95°
2026-04-26 19:23 51.11977 2.21827 23643 ft 453 kts 94°
2026-04-26 19:23 51.11708 2.26770 23981 ft 454 kts 94°
2026-04-26 19:23 51.11430 2.31814 24309 ft 456 kts 94°
2026-04-26 19:24 51.11156 2.36781 24618 ft 458 kts 94°
2026-04-26 19:24 51.10871 2.41882 24931 ft 460 kts 94°
2026-04-26 19:24 51.10298 2.52014 25671 ft 461 kts 94°
2026-04-26 19:25 51.10007 2.57085 26043 ft 462 kts 94°
2026-04-26 19:25 51.09749 2.60422 26227 ft 463 kts 99°
2026-04-26 19:25 51.08646 2.67040 26598 ft 466 kts 110°
2026-04-26 19:25 51.07367 2.71641 26917 ft 467 kts 117°
2026-04-26 19:26 51.05886 2.76155 27310 ft 466 kts 118°
2026-04-26 19:26 51.04356 2.80686 27704 ft 465 kts 119°
2026-04-26 19:26 51.02835 2.85176 28081 ft 464 kts 118°
2026-04-26 19:26 51.01312 2.89690 28431 ft 464 kts 118°
2026-04-26 19:27 50.99782 2.94241 28785 ft 464 kts 118°
2026-04-26 19:27 50.98266 2.98762 28939 ft 469 kts 118°
2026-04-26 19:27 50.96735 3.03329 29058 ft 474 kts 118°
2026-04-26 19:27 50.95192 3.07925 29189 ft 478 kts 118°
2026-04-26 19:28 50.93621 3.12602 29428 ft 479 kts 118°
2026-04-26 19:28 50.92063 3.17230 29761 ft 478 kts 118°
2026-04-26 19:28 50.90510 3.21838 30097 ft 477 kts 118°
2026-04-26 19:28 50.89022 3.26244 30408 ft 476 kts 118°
2026-04-26 19:29 50.87489 3.30777 30707 ft 476 kts 118°
2026-04-26 19:29 50.85933 3.35371 30964 ft 476 kts 118°
2026-04-26 19:29 50.84371 3.39974 31167 ft 477 kts 118°
2026-04-26 19:29 50.82783 3.44645 31258 ft 479 kts 118°
2026-04-26 19:30 50.79639 3.53865 31258 ft 480 kts 118°
2026-04-26 19:30 50.77041 3.61456 31260 ft 481 kts 118°
2026-04-26 19:31 50.73368 3.72155 31258 ft 481 kts 118°
2026-04-26 19:31 50.70180 3.81405 31258 ft 481 kts 118°
2026-04-26 19:32 50.66998 3.90606 31250 ft 480 kts 118°
2026-04-26 19:32 50.63813 3.99781 31252 ft 480 kts 118°
2026-04-26 19:33 50.60731 4.09138 31250 ft 480 kts 115°
2026-04-26 19:33 50.57910 4.18568 31250 ft 481 kts 114°
2026-04-26 19:34 50.55055 4.28109 31248 ft 481 kts 114°
2026-04-26 19:34 50.52228 4.37504 31252 ft 482 kts 114°
2026-04-26 19:35 50.49361 4.46992 31255 ft 482 kts 114°
2026-04-26 19:35 50.46482 4.56479 31255 ft 482 kts 114°
2026-04-26 19:36 50.44078 4.64371 31256 ft 483 kts 114°
2026-04-26 19:36 50.40806 4.75077 31249 ft 483 kts 115°
2026-04-26 19:37 50.37885 4.84591 31246 ft 482 kts 115°
2026-04-26 19:37 50.34978 4.94020 31247 ft 482 kts 115°
2026-04-26 19:38 50.32063 5.03447 31245 ft 483 kts 115°
2026-04-26 19:38 50.29136 5.12871 31243 ft 484 kts 114°
2026-04-26 19:39 50.26190 5.22321 31247 ft 484 kts 114°
2026-04-26 19:39 50.23264 5.31676 31243 ft 483 kts 114°
2026-04-26 19:40 50.20329 5.41021 31243 ft 483 kts 114°
2026-04-26 19:40 50.17370 5.50406 31237 ft 483 kts 114°
2026-04-26 19:41 50.14398 5.59802 31234 ft 483 kts 114°
2026-04-26 19:41 50.11964 5.67471 31230 ft 483 kts 115°
2026-04-26 19:42 50.08518 5.78277 31228 ft 483 kts 115°
2026-04-26 19:42 50.05234 5.87445 31225 ft 484 kts 118°
2026-04-26 19:43 50.01881 5.96427 31225 ft 483 kts 118°
2026-04-26 19:43 49.98516 6.05430 31228 ft 484 kts 118°
2026-04-26 19:44 49.95130 6.14468 31229 ft 484 kts 118°
2026-04-26 19:44 49.91745 6.23478 31230 ft 484 kts 118°
2026-04-26 19:45 49.88375 6.32414 31227 ft 484 kts 118°
2026-04-26 19:45 49.84978 6.41388 31229 ft 483 kts 118°
2026-04-26 19:46 49.81577 6.50348 31228 ft 483 kts 118°
2026-04-26 19:46 49.78166 6.59301 31229 ft 483 kts 118°
2026-04-26 19:47 49.75349 6.66675 31229 ft 483 kts 119°
2026-04-26 19:47 49.71379 6.77028 31231 ft 483 kts 119°
2026-04-26 19:48 49.67934 6.85978 31233 ft 483 kts 119°
2026-04-26 19:48 49.64514 6.94832 31239 ft 483 kts 119°
2026-04-26 19:49 49.61084 7.03682 31234 ft 483 kts 119°
2026-04-26 19:49 49.57632 7.12559 31234 ft 482 kts 118°
2026-04-26 19:50 49.54199 7.21359 31233 ft 482 kts 118°
2026-04-26 19:50 49.50737 7.30204 31232 ft 482 kts 118°
2026-04-26 19:51 49.47291 7.38980 31230 ft 481 kts 118°
2026-04-26 19:51 49.43832 7.47758 31222 ft 482 kts 118°
2026-04-26 19:52 49.40353 7.56556 31220 ft 482 kts 118°
2026-04-26 19:52 49.36882 7.65305 31219 ft 482 kts 119°
2026-04-26 19:53 49.33425 7.73994 31221 ft 482 kts 119°
2026-04-26 19:53 49.29942 7.82717 31222 ft 481 kts 119°
2026-04-26 19:54 49.26466 7.91395 31222 ft 481 kts 119°
2026-04-26 19:54 49.22978 8.00073 31223 ft 481 kts 119°
2026-04-26 19:55 49.19474 8.08761 31218 ft 481 kts 119°
2026-04-26 19:55 49.15968 8.17429 31222 ft 481 kts 119°
2026-04-26 19:56 49.12442 8.26124 31222 ft 481 kts 119°
2026-04-26 19:56 49.08940 8.34727 31221 ft 480 kts 119°
2026-04-26 19:57 49.05417 8.43353 31219 ft 479 kts 119°
2026-04-26 19:57 49.01901 8.51932 31219 ft 479 kts 119°
2026-04-26 19:58 48.98134 8.60281 31217 ft 480 kts 126°
2026-04-26 19:58 48.93876 8.67890 31206 ft 482 kts 135°
2026-04-26 19:59 48.91281 8.71043 31211 ft 483 kts 147°
2026-04-26 19:59 48.88447 8.73324 31212 ft 483 kts 158°
2026-04-26 19:59 48.82064 8.75412 31215 ft 479 kts 180°
2026-04-26 20:00 48.78759 8.75088 31217 ft 476 kts 191°
2026-04-26 20:00 48.75543 8.74229 31219 ft 476 kts 193°
2026-04-26 20:00 48.69080 8.72356 30692 ft 474 kts 193°
2026-04-26 20:01 48.65864 8.71452 29504 ft 483 kts 193°
2026-04-26 20:01 48.62508 8.70536 28278 ft 491 kts 192°
2026-04-26 20:01 48.59199 8.69649 27278 ft 492 kts 192°
2026-04-26 20:01 48.55845 8.68761 26359 ft 491 kts 192°
2026-04-26 20:02 48.52491 8.67877 25646 ft 485 kts 192°
2026-04-26 20:02 48.49195 8.67010 25047 ft 478 kts 192°
2026-04-26 20:02 48.45934 8.66153 24470 ft 471 kts 192°
2026-04-26 20:02 48.43822 8.65598 24098 ft 466 kts 193°
2026-04-26 20:03 48.39578 8.64482 23353 ft 458 kts 193°
2026-04-26 20:03 48.36454 8.63629 22811 ft 453 kts 194°
2026-04-26 20:03 48.33417 8.62716 22277 ft 448 kts 194°
2026-04-26 20:03 48.30373 8.61777 21735 ft 443 kts 194°
2026-04-26 20:04 48.27364 8.60853 21193 ft 439 kts 194°
2026-04-26 20:04 48.24383 8.59946 20661 ft 435 kts 194°
2026-04-26 20:04 48.21414 8.59050 20101 ft 432 kts 193°
2026-04-26 20:04 48.18516 8.58179 19468 ft 432 kts 193°
2026-04-26 20:05 48.15559 8.57292 18845 ft 430 kts 193°
2026-04-26 20:05 48.12635 8.56419 18286 ft 427 kts 193°
2026-04-26 20:05 48.09757 8.55564 17733 ft 423 kts 193°
2026-04-26 20:05 48.06904 8.54719 17178 ft 420 kts 193°
2026-04-26 20:06 48.04042 8.53869 16626 ft 417 kts 193°
2026-04-26 20:06 48.01190 8.53023 16071 ft 413 kts 193°
2026-04-26 20:06 47.98388 8.52192 15526 ft 410 kts 193°
2026-04-26 20:06 47.95569 8.51763 14939 ft 410 kts 177°
2026-04-26 20:07 47.92858 8.52864 14395 ft 409 kts 154°
2026-04-26 20:07 47.90549 8.55342 13877 ft 405 kts 140°
2026-04-26 20:07 47.88528 8.57916 13347 ft 402 kts 140°
2026-04-26 20:07 47.86389 8.60614 12834 ft 399 kts 141°
2026-04-26 20:08 47.84287 8.63225 12283 ft 395 kts 141°
2026-04-26 20:08 47.82174 8.65819 11775 ft 392 kts 141°
2026-04-26 20:08 47.80053 8.68406 11323 ft 386 kts 141°
2026-04-26 20:08 47.78042 8.70851 11075 ft 367 kts 141°
2026-04-26 20:09 47.76126 8.73175 10890 ft 340 kts 141°
2026-04-26 20:09 47.74376 8.75293 10700 ft 315 kts 141°
2026-04-26 20:09 47.72729 8.77287 10533 ft 298 kts 141°
2026-04-26 20:09 47.71159 8.79185 10424 ft 289 kts 141°
2026-04-26 20:10 47.69637 8.81022 10305 ft 281 kts 141°
2026-04-26 20:10 47.68137 8.82830 10122 ft 279 kts 141°
2026-04-26 20:10 47.66620 8.84657 9748 ft 282 kts 141°
2026-04-26 20:10 47.65129 8.86450 9407 ft 283 kts 141°
2026-04-26 20:11 47.63575 8.88318 9059 ft 284 kts 140°
2026-04-26 20:11 47.62182 8.90359 8722 ft 285 kts 128°
2026-04-26 20:11 47.61101 8.92853 8380 ft 284 kts 117°
2026-04-26 20:12 47.59286 8.98023 7668 ft 285 kts 123°
2026-04-26 20:12 47.57834 8.99982 7277 ft 286 kts 155°
2026-04-26 20:12 47.55897 9.00468 6928 ft 285 kts 187°
2026-04-26 20:12 47.54081 8.99463 6579 ft 284 kts 216°
2026-04-26 20:13 47.52580 8.97581 6258 ft 282 kts 222°
2026-04-26 20:13 47.51111 8.95658 5909 ft 283 kts 221°
2026-04-26 20:13 47.49632 8.93771 5551 ft 276 kts 220°
2026-04-26 20:13 47.48189 8.91969 5220 ft 267 kts 220°
2026-04-26 20:14 47.46808 8.90265 4999 ft 254 kts 220°
2026-04-26 20:14 47.45494 8.88652 4982 ft 233 kts 219°
2026-04-26 20:14 47.44328 8.87164 4953 ft 215 kts 231°
2026-04-26 20:14 47.43733 8.85261 5032 ft 199 kts 261°
2026-04-26 20:15 47.43704 8.83299 4988 ft 180 kts 277°
2026-04-26 20:15 47.43867 8.81554 4916 ft 165 kts 281°
2026-04-26 20:15 47.44039 8.79917 4697 ft 162 kts 280°
2026-04-26 20:15 47.44189 8.78273 4490 ft 158 kts 279°
2026-04-26 20:16 47.44310 8.76706 4253 ft 152 kts 278°
2026-04-26 20:16 47.44417 8.75167 4030 ft 151 kts 277°
2026-04-26 20:16 47.44520 8.73617 3808 ft 151 kts 277°
2026-04-26 20:16 47.44620 8.72096 3591 ft 151 kts 277°
2026-04-26 20:17 47.44723 8.70548 3369 ft 152 kts 277°
2026-04-26 20:17 47.44827 8.69006 3156 ft 152 kts 278°
2026-04-26 20:17 47.44932 8.67464 2936 ft 151 kts 278°
2026-04-26 20:17 47.45002 8.66450 2788 ft 150 kts 278°
2026-04-26 20:18 47.45141 8.64449 2498 ft 148 kts 277°
2026-04-26 20:18 47.45245 8.62947 2289 ft 147 kts 277°
2026-04-26 20:18 47.45349 8.61457 2080 ft 147 kts 277°
2026-04-26 20:18 47.45452 8.59958 1877 ft 146 kts 277°
2026-04-26 20:19 47.45554 8.58516 1677 ft 145 kts 277°
2026-04-26 20:19 47.45658 8.57044 1468 ft 144 kts 277°
2026-04-26 20:19 47.45755 8.55676 1396 ft 129 kts 277°
2026-04-26 20:19 47.45831 8.54660 1383 ft 58 kts 276°
2026-04-26 20:20 47.45858 8.54365 1386 ft 21 kts 298°
2026-04-26 20:20 47.45952 8.54274 1386 ft 10 kts 32°
2026-04-26 20:20 47.45954 8.54386 1385 ft 12 kts 97°
2026-04-26 20:20 47.45944 8.54519 1383 ft 14 kts 96°
2026-04-26 20:21 47.45933 8.54668 1381 ft 15 kts 96°
2026-04-26 20:21 47.45923 8.54824 1380 ft 15 kts 96°
2026-04-26 20:21 47.45913 8.54968 1382 ft 13 kts 96°
2026-04-26 20:21 47.45912 8.55102 1382 ft 12 kts 64°
2026-04-26 20:22 47.45987 8.55110 1383 ft 12 kts 335°
2026-04-26 20:22 47.46066 8.55055 1383 ft 12 kts 335°
2026-04-26 20:22 47.46116 8.55048 1384 ft 6 kts 55°
2026-04-26 20:22 47.46137 8.55110 1384 ft 4 kts 65°
2026-04-26 20:23 47.46140 8.55118 1384 ft 0 kts 65°